This demonstration page uses our WeatherBlox Daily Observations layout. Learn more.

Left ArrowRight Arrow

39.08367, -84.50855

Hourly Observations for November 6, 2015

Temp ( °F °C ) Dew Point ( °F °C ) Humidity (%) Winds ( mph kmh ) Pressure ( in mb ) Visibility ( mi km ) Precip ( " mm )
12:53 am 00:53 Cloudy 68 20 62 16.7 81 81 S 12 19 29.94 1014 10 16 0.00 0.03
1:53 am 01:53 Cloudy with Light Rain 67 19.4 63 17.2 87 87 S 9 15 29.91 1013 8 13 0.00 0.03
2:43 am 02:43 Cloudy with Light Rain 67 19.4 65 18.3 93 93 WSW 9 15 29.91 1013 10 16 0.03 0.76
2:53 am 02:53 Cloudy with Heavy Rain 67 19.4 66 18.9 97 97 WSW 9 15 29.94 1014 3 4 0.09 2.29
3:01 am 03:01 Cloudy with Heavy Rain 67 19.4 66 18.9 97 97 W 9 15 29.94 1014 2 2 0.05 1.27
3:53 am 03:53 Cloudy with Heavy Rain 66 18.9 66 18.9 100 100 S 6 9 29.93 1014 3 4 0.57 14.48
4:10 am 04:10 Cloudy with Heavy Rain 64 18 64 18 100 100 S 5 7 29.91 1013 3 5 0.00 0.00
4:33 am 04:33 Cloudy with Heavy Rain 66 18.9 66 18.9 100 100 S 7 11 29.91 1013 3 4 0.20 5.08
4:40 am 04:40 Cloudy with Heavy Rain 66 19 66 19 100 100 SSW 14 22 29.91 1013 2 3 0.00 0.00
4:53 am 04:53 Cloudy with Heavy Rain 66 18.9 66 18.9 100 100 SSW 18 30 29.93 1013 2 3 0.46 11.68
4:57 am 04:57 Cloudy with Rain 66 18.9 65 18.3 96 96 SW 16 26 29.91 1013 3 5 0.01 0.25
5:53 am 05:53 Cloudy with Light Rain 65 18.3 63 17.2 93 93 SSE 14 22 29.90 1012 10 16 0.06 1.52
6:53 am 06:53 Mostly Cloudy with Light Rain 64 17.8 63 17.2 96 96 S 13 20 29.93 1014 10 16 0.01 0.25
7:44 am 07:44 Cloudy 64 18 63 17 94 94 SSW 12 19 29.94 1014 10 16 0.00 0.00
7:53 am 07:53 Cloudy 64 17.8 63 17.2 96 96 SSW 14 22 29.96 1015 10 16 0.00 0.03
8:53 am 08:53 Mostly Cloudy 65 18.3 64 17.8 97 97 SSW 10 17 29.98 1015 10 16 0.00 0.03
9:53 am 09:53 Partly Cloudy 66 18.9 64 17.8 93 93 SW 10 17 30.00 1016 10 16 0.00 0.00
10:53 am 10:53 Mostly Cloudy 68 20 64 17.8 87 87 WSW 14 22 30.02 1017 10 16 0.00 0.00
11:00 am 11:00 Mostly Sunny 68 20 63 17 83 83 SW 9 15 30.00 1016 10 16 0.00 0.00
11:07 am 11:07 Mostly Cloudy 69 20.6 63 17.2 81 81 SW 10 17 30.00 1016 10 16 0.00 0.00
11:53 am 11:53 Mostly Cloudy 69 20.6 61 16.1 76 76 WSW 13 20 30.00 1016 10 16 0.00 0.00
12:53 pm 12:53 Mostly Cloudy 69 20.6 60 15.6 73 73 SW 14 22 30.01 1016 10 16 0.00 0.00
1:53 pm 13:53 Mostly Cloudy 69 20.6 58 14.4 68 68 W 13 20 30.02 1017 10 16 0.00 0.00
2:53 pm 14:53 Partly Cloudy 68 20 58 14.4 70 70 WSW 12 19 30.01 1016 10 16 0.00 0.00
3:53 pm 15:53 Partly Cloudy 66 18.9 53 11.7 63 63 WNW 8 13 30.04 1017 10 16 0.00 0.00
4:53 pm 16:53 Mostly Cloudy 63 17.2 47 8.3 56 56 W 9 15 30.05 1018 10 16 0.00 0.00
5:53 pm 17:53 Partly Cloudy 61 16.1 46 7.8 58 58 VRB 5 7 30.08 1019 10 16 0.00 0.00
6:53 pm 18:53 Clear 60 15.6 47 8.3 62 62 NW 5 7 30.10 1019 10 16 0.00 0.00
7:53 pm 19:53 Clear 58 14.4 45 7.2 62 62 NW 8 13 30.12 1020 10 16 0.00 0.00
8:53 pm 20:53 Clear 56 13.3 44 6.7 65 65 NW 6 9 30.15 1021 10 16 0.00 0.00
9:53 pm 21:53 Clear 55 12.8 44 6.7 67 67 N 9 15 30.16 1021 10 16 0.00 0.00
10:53 pm 22:53 Clear 53 11.7 44 6.7 72 72 NW 6 9 30.17 1022 10 16 0.00 0.00
11:53 pm 23:53 Cloudy 52 11.1 44 6.7 75 75 N 8 13 30.18 1022 10 16 0.00 0.00

Powered by AerisWeather